Weather History for Statesboro, GA

Change the Weather History Date:

Monday, April 29, 2013

  Actual Average (KSAV) Record (KSAV)
Temperature  
Mean Temperature 71 °F 69 °F  
Max Temperature 79 °F 81 °F 93 °F (2002)
Min Temperature 63 °F 57 °F 39 °F (1967)
Degree Days  
Heating Degree Days 0 1  
Month to date heating degree days 75  
Since 1 July heating degree days 1802  
Cooling Degree Days 6 5  
Month to date cooling degree days 89  
Year to date cooling degree days 131  
Growing Degree Days 21 (Base 50)    
Moisture  
Dew Point 65 °F    
Average Humidity 87    
Maximum Humidity 100    
Minimum Humidity 59    
Precipitation  
Precipitation 0.00 in 0.09 in 2.98 in (1873)
Month to date precipitation 2.98  
Year to date precipitation 13.19  
Sea Level Pressure  
Sea Level Pressure 30.00 in    
Wind  
Wind Speed 3 mph (WSW)    
Max Wind Speed 13 mph    
Max Gust Speed 20 mph    
Visibility 9 miles    
Events Fog , Rain , Thunderstorm    
T = Trace of Precipitation, MM = Missing Value Source: NWS Daily Summary

Daily Weather History Graph

Daily Weather History Graph

Search for Another Location

Airport:

Trip Planner

Search our weather history database for the weather conditions in past years. The results will help you decide how hot, cold, wet, or windy it might be!

Date:

Astronomy

Apr. 29, 2013 Rise Set
Actual Time 6:41 AM EDT 8:06 PM EDT
Civil Twilight 6:15 AM EDT 8:33 PM EDT
Nautical Twilight 5:44 AM EDT 9:04 PM EDT
Astronomical Twilight 5:12 AM EDT 9:36 PM EDT
Moon No Moon Rise 10:06 AM EDT (4/29)
Length of Visible Light 14h 17m
Length of Day
13h 24m
Waning Gibbous, 80% of the Moon is Illuminated
Apr 29
Waning Gibbous
May 2
Last Quarter
May 9
New
May 18
First Quarter
May 25
Full

Hourly Weather History & Observations

Time (EDT) Temp. Dew Point Humidity Pressure Visibility Wind Dir Wind Speed Gust Speed Precip Events Conditions
12:15 AM 65.5 °F 65.5 °F 100% 30.04 in 10.0 mi Calm Calm - N/A   Overcast
12:35 AM 66.2 °F 66.2 °F 100% 30.04 in 10.0 mi Calm Calm - N/A   Overcast
12:55 AM 66.2 °F 66.2 °F 100% 30.04 in 7.0 mi Calm Calm - N/A   Overcast
1:15 AM 66.2 °F 66.2 °F 100% 30.05 in 10.0 mi SSW 3.5 mph - N/A Rain Light Rain
1:35 AM 66.2 °F 66.2 °F 100% 30.04 in 4.0 mi Calm Calm - N/A Rain Rain
1:55 AM 66.2 °F 66.2 °F 100% 30.03 in 7.0 mi Calm Calm - N/A   Overcast
2:15 AM 66.2 °F 66.2 °F 100% 30.02 in 10.0 mi SSE 4.6 mph - N/A   Overcast
2:35 AM 66.2 °F 66.2 °F 100% 30.01 in 10.0 mi SE 3.5 mph - N/A   Overcast
2:55 AM 65.8 °F 65.8 °F 100% 30.01 in 10.0 mi SE 3.5 mph - N/A   Mostly Cloudy
3:15 AM 65.8 °F 65.8 °F 100% 30.00 in 10.0 mi Calm Calm - N/A   Mostly Cloudy
3:35 AM 66.0 °F 66.0 °F 100% 30.01 in 10.0 mi Calm Calm - N/A   Overcast
3:55 AM 65.8 °F 65.8 °F 100% 30.01 in 10.0 mi NW 5.8 mph - N/A   Overcast
4:15 AM 65.8 °F 65.8 °F 100% 30.02 in 7.0 mi NW 3.5 mph - N/A   Overcast
4:35 AM 65.7 °F 65.7 °F 100% 30.01 in 7.0 mi NNW 3.5 mph - N/A   Overcast
4:55 AM 65.7 °F 65.7 °F 100% 30.00 in 7.0 mi Calm Calm - N/A   Overcast
5:15 AM 64.8 °F 64.8 °F 100% 30.00 in 5.0 mi Calm Calm - N/A   Mostly Cloudy
5:35 AM 64.9 °F 64.9 °F 100% 30.00 in 5.0 mi Calm Calm - N/A   Mostly Cloudy
5:55 AM 64.8 °F 64.8 °F 100% 30.00 in 5.0 mi Calm Calm - N/A   Mostly Cloudy
6:15 AM 64.8 °F 64.8 °F 100% 30.01 in 4.0 mi Calm Calm - N/A   Overcast
6:35 AM 64.4 °F 64.4 °F 100% 30.01 in 1.5 mi Calm Calm - N/A   Mostly Cloudy
6:55 AM 63.5 °F 63.5 °F 100% 30.01 in 1.0 mi Calm Calm - N/A   Mostly Cloudy
7:15 AM 63.9 °F 63.9 °F 100% 30.02 in 0.5 mi Calm Calm - N/A Fog Fog
7:35 AM 64.4 °F 64.4 °F 100% 30.02 in 3.0 mi Calm Calm - N/A   Mostly Cloudy
7:55 AM 65.1 °F 65.1 °F 100% 30.02 in 4.0 mi Calm Calm - N/A   Mostly Cloudy
8:15 AM 66.2 °F 66.2 °F 100% 30.03 in 5.0 mi Calm Calm - N/A   Scattered Clouds
8:35 AM 66.6 °F 66.6 °F 100% 30.03 in 7.0 mi Calm Calm - N/A   Scattered Clouds
8:55 AM 67.6 °F 67.6 °F 100% 30.03 in 7.0 mi Calm Calm - N/A   Scattered Clouds
9:15 AM 68.2 °F 68.2 °F 100% 30.03 in 10.0 mi Calm Calm - N/A   Scattered Clouds
9:35 AM 68.9 °F 68.9 °F 100% 30.03 in 10.0 mi Calm Calm - N/A   Clear
9:55 AM 71.8 °F 69.4 °F 92% 30.02 in 10.0 mi SSW 4.6 mph - N/A   Scattered Clouds
10:15 AM 72.0 °F 69.8 °F 93% 30.02 in 10.0 mi SW 4.6 mph - N/A   Clear
10:35 AM 73.6 °F 68.9 °F 85% 30.02 in 10.0 mi SW 8.1 mph - N/A   Clear
10:55 AM 74.8 °F 66.7 °F 76% 30.03 in 10.0 mi SW 9.2 mph - N/A   Scattered Clouds
11:15 AM 75.9 °F 65.7 °F 70% 30.03 in 10.0 mi SW 6.9 mph - N/A   Clear
11:35 AM 76.8 °F 65.7 °F 68% 30.03 in 10.0 mi SW 6.9 mph - N/A   Scattered Clouds
11:55 AM 76.5 °F 65.5 °F 69% 30.02 in 10.0 mi SW 4.6 mph - N/A   Scattered Clouds
12:15 PM 77.0 °F 66.0 °F 69% 30.02 in 10.0 mi SW 6.9 mph - N/A   Mostly Cloudy
12:35 PM 77.0 °F 66.0 °F 69% 30.02 in 10.0 mi West 5.8 mph - N/A   Overcast
12:55 PM 76.5 °F 66.0 °F 70% 30.01 in 10.0 mi West 5.8 mph - N/A   Mostly Cloudy
1:15 PM 77.4 °F 66.2 °F 68% 30.00 in 10.0 mi West 5.8 mph - N/A   Mostly Cloudy
1:35 PM 77.5 °F 66.2 °F 68% 30.00 in 10.0 mi WSW 8.1 mph - N/A Thunderstorm Scattered Clouds
1:55 PM 78.4 °F 66.9 °F 68% 29.99 in 10.0 mi West 11.5 mph - N/A   Scattered Clouds
2:15 PM 79.5 °F 65.5 °F 62% 29.97 in 10.0 mi West 6.9 mph - N/A   Scattered Clouds
2:35 PM 78.1 °F 65.1 °F 64% 29.97 in 10.0 mi West 9.2 mph 16.1 mph N/A   Mostly Cloudy
2:55 PM 79.5 °F 64.0 °F 59% 29.97 in 10.0 mi WNW 12.7 mph - N/A   Mostly Cloudy
3:15 PM 77.2 °F 65.8 °F 68% 29.97 in 10.0 mi NNW 12.7 mph 19.6 mph N/A   Mostly Cloudy
3:35 PM 76.1 °F 64.8 °F 68% 29.96 in 10.0 mi NNW 9.2 mph - N/A   Scattered Clouds
3:55 PM 76.5 °F 64.9 °F 67% 29.96 in 10.0 mi WNW 9.2 mph - N/A   Clear
4:15 PM 77.2 °F 64.4 °F 65% 29.95 in 10.0 mi NNW 9.2 mph - N/A   Clear
4:35 PM 76.8 °F 64.4 °F 65% 29.94 in 10.0 mi NW 11.5 mph - N/A   Scattered Clouds
4:55 PM 76.1 °F 63.5 °F 65% 29.94 in 10.0 mi NW 8.1 mph - N/A Thunderstorm Clear
5:15 PM 76.1 °F 64.2 °F 67% 29.95 in 10.0 mi WNW 9.2 mph - N/A   Scattered Clouds
5:35 PM 75.4 °F 63.1 °F 66% 29.95 in 10.0 mi WNW 3.5 mph - N/A   Scattered Clouds
5:55 PM 75.4 °F 63.9 °F 67% 29.96 in 10.0 mi NNE 3.5 mph - N/A   Scattered Clouds
6:15 PM 74.7 °F 63.9 °F 69% 29.96 in 10.0 mi Calm Calm - N/A   Scattered Clouds
6:35 PM 74.5 °F 64.4 °F 71% 29.96 in 10.0 mi Calm Calm - N/A   Scattered Clouds
6:55 PM 74.3 °F 65.1 °F 73% 29.96 in 10.0 mi Calm Calm - N/A   Mostly Cloudy
7:15 PM 72.0 °F 64.4 °F 77% 29.97 in 10.0 mi ESE 6.9 mph - N/A   Mostly Cloudy
7:35 PM 70.9 °F 63.7 °F 78% 29.97 in 10.0 mi SE 6.9 mph - N/A   Overcast
7:55 PM 70.3 °F 62.2 °F 75% 29.97 in 10.0 mi South 10.4 mph - N/A   Mostly Cloudy
8:15 PM 68.2 °F 62.2 °F 81% 29.97 in 10.0 mi SSE 6.9 mph - N/A   Scattered Clouds
8:35 PM 67.5 °F 62.8 °F 85% 29.97 in 10.0 mi South 4.6 mph - N/A   Scattered Clouds
8:55 PM 66.9 °F 65.8 °F 96% 29.98 in 10.0 mi South 4.6 mph - N/A   Scattered Clouds
9:15 PM 66.4 °F 66.4 °F 100% 29.99 in 10.0 mi South 3.5 mph - N/A   Clear
9:35 PM 65.8 °F 65.8 °F 100% 29.99 in 10.0 mi Calm Calm - N/A   Scattered Clouds
9:55 PM 66.2 °F 66.2 °F 100% 29.99 in 10.0 mi Calm Calm - N/A   Scattered Clouds
10:15 PM 65.7 °F 65.7 °F 100% 29.99 in 10.0 mi Calm Calm - N/A   Clear
10:35 PM 65.5 °F 65.5 °F 100% 29.99 in 10.0 mi Calm Calm - N/A   Clear
10:55 PM 65.3 °F 65.3 °F 100% 29.99 in 10.0 mi Calm Calm - N/A   Clear
11:35 PM 64.6 °F 64.6 °F 100% 29.97 in 10.0 mi Calm Calm - N/A   Clear
11:55 PM 64.4 °F 64.4 °F 100% 29.96 in 10.0 mi Calm Calm - N/A   Clear